RH
99 96 92 88 83 59 30 18 10 6 4 3 3 3 4 4 3 3 3 3 8 10 10 10 9 8 12 16 8 13 18 22 23 22 25 30 24 38 56 35 33 23 16 14 17 17 16
100 99 99 94 87 74 46 20 10 6 4 3 4 5 4 3 2 3 3 9 10 8 11 15 27 19 26 26 15 18 21 20 26 29 28 31 30 24 20 20 29 32 21 20 20 24 28
100 100 100 100 93 84 56 25 10 6 4 4 6 4 3 3 3 3 8 9 8 10 17 31 33 30 32 19 37 38 34 32 34 29 31 26 26 28 22 26 21 21 25 22 19 20 31
100 96 100 99 99 92 63 30 14 6 5 6 5 4 3 3 4 9 9 8 9 12 20 30 38 40 33 37 27 29 30 28 28 26 25 30 30 27 29 25 24 26 26 31 21 24 23
100 100 100 100 99 96 63 46 18 9 6 7 6 4 4 4 8 8 10 10 13 22 28 37 45 62 48 36 27 22 22 25 24 27 26 23 29 28 26 29 36 32 36 32 26 18 25
100 98 100 100 99 100 83 75 23 33 9 6 6 5 4 7 10 11 13 14 25 39 47 49 64 72 28 28 20 19 19 26 31 29 25 22 21 40 39 37 59 47 36 31 33 24 31
100 100 100 100 100 100 89 44 49 35 10 9 7 6 7 11 16 31 16 19 18 31 32 18 30 34 30 29 23 19 19 26 33 30 35 29 35 40 36 42 38 40 44 44 33 26 28
100 100 100 100 100 100 95 62 57 26 19 12 8 7 11 13 31 42 35 22 33 39 44 24 31 34 34 36 31 22 22 28 41 48 55 62 56 42 34 32 31 34 52 51 39 31 31
100 100 100 100 100 100 84 78 52 31 27 12 10 9 15 15 46 45 37 44 49 49 57 34 30 31 36 28 24 23 28 33 56 67 68 72 48 42 46 41 40 33 33 44 57 42 29
100 99 100 100 100 99 93 75 49 52 38 16 12 17 15 20 37 46 45 38 48 60 63 22 30 33 27 30 28 26 33 39 70 62 55 66 50 65 71 63 46 56 36 34 59 63 55
100 100 100 100 100 94 87 72 83 85 47 32 27 19 22 27 46 45 44 59 61 60 35 22 18 21 30 32 34 33 34 46 54 53 54 58 52 57 54 54 49 62 34 38 56 72 48
100 100 100 100 100 93 83 83 88 54 34 29 25 22 32 40 49 42 53 66 64 49 33 30 24 32 40 38 38 40 46 48 48 55 53 56 45 54 55 46 47 40 54 60 65 63 71
100 100 100 100 96 90 85 90 76 47 25 29 30 23 29 54 44 38 62 66 50 46 28 31 35 40 47 51 55 60 66 72 78 86 74 65 65 58 51 66 50 50 62 88 81 90 82
100 100 99 100 96 98 100 80 77 47 40 36 35 26 47 38 29 49 63 61 37 34 35 26 39 50 62 64 64 71 76 85 64 83 92 94 81 48 36 57 42 47 63 82 70 74 68
100 100 100 100 100 99 98 97 77 47 42 43 36 47 39 34 24 62 61 72 41 36 32 51 53 74 78 61 69 82 74 67 98 90 96 95 75 41 52 57 44 60 65 44 67 64 91
99 99 99 99 100 100 99 77 43 44 47 42 62 62 60 40 60 73 76 47 39 37 47 54 78 74 96 80 88 87 76 59 95 75 82 74 96 57 59 55 62 57 65 78 83 71 83
99 99 98 99 100 99 53 34 43 48 48 63 67 66 70 56 57 68 80 51 38 45 45 61 71 86 92 97 87 78 77 66 74 70 70 83 85 69 63 60 66 77 85 75 61 70 96
99 99 99 100 94 89 79 44 50 46 47 60 69 90 73 36 77 91 87 58 36 48 45 52 58 72 91 91 79 83 92 79 67 68 83 81 99 98 87 79 76 83 67 63 76 73 91
99 98 90 93 94 94 93 50 47 52 51 71 68 68 59 75 92 88 59 49 45 46 48 52 57 72 75 96 94 92 84 64 64 70 79 76 97 93 77 80 67 80 75 87 87 95 98
98 96 93 91 91 93 95 54 54 53 67 73 63 90 64 82 62 60 57 54 49 40 42 46 51 62 79 87 92 92 93 68 60 70 69 83 100 99 96 99 99 100 72 82 79 93 96
96 98 96 94 82 93 85 57 53 56 76 63 67 79 63 91 79 58 57 52 46 42 38 45 60 58 74 85 84 99 82 72 65 66 71 87 98 97 96 100 89 98 90 99 92 96 94
91 78 86 91 75 53 63 61 59 65 68 58 63 67 49 63 53 52 62 60 43 39 44 51 50 57 61 66 69 75 79 72 86 76 78 70 98 100 98 80 78 95 97 98 94 87 93
93 86 90 86 74 54 74 65 50 49 70 64 66 52 47 68 56 63 78 51 41 44 44 49 52 59 62 63 55 59 60 61 64 76 87 77 79 94 97 87 84 83 98 96 93 96 90
93 95 92 85 79 60 62 58 57 59 74 53 59 61 55 83 63 53 56 40 46 49 55 50 51 57 49 49 56 57 68 76 75 69 76 83 81 77 97 89 88 98 91 92 91 95 95
94 93 80 90 88 59 49 63 62 66 78 59 58 62 65 90 76 66 60 56 52 54 54 56 49 54 55 62 79 66 67 58 55 58 60 67 81 98 95 90 96 87 85 92 89 99 97
97 84 80 92 92 77 48 63 67 76 76 63 64 64 65 71 84 76 62 61 72 76 70 60 47 56 57 80 84 80 92 78 84 75 58 66 69 88 93 82 93 94 86 96 78 92 96
97 95 86 90 91 83 59 58 75 66 76 67 65 65 60 72 76 66 71 68 65 72 80 74 68 70 64 92 92 95 88 75 98 91 94 85 87 92 89 92 89 88 97 100 90 95 99
98 97 90 85 88 78 54 65 75 64 62 67 65 58 56 69 71 69 65 63 69 71 90 66 74 78 89 93 90 91 96 90 96 85 94 89 92 92 85 81 90 97 78 85 98 99 98
98 97 90 86 82 76 56 71 74 73 73 68 62 63 56 55 61 62 54 54 59 71 69 69 74 88 87 90 83 86 96 96 90 100 80 92 86 90 93 93 98 99 100 99 92 77 85
Wind_Speed
41 39 35 31 29 28 27 25 23 22 20 18 15 14 13 15 15 15 14 14 16 17 17 19 20 22 21 10 3 5 10 13 8 7 8 8 8 4 3 4 7 14 11 24 27 31 28
47 45 41 35 34 32 29 27 25 24 21 18 16 15 15 15 14 14 14 15 15 15 16 17 16 18 16 5 5 10 11 11 12 11 9 7 5 8 12 9 8 16 27 28 34 29 21
51 49 48 41 38 35 32 30 27 25 23 20 17 16 15 15 13 12 14 14 14 15 15 14 13 15 15 5 6 6 9 16 8 8 13 14 14 10 3 5 11 10 15 18 23 17 14
55 50 51 48 43 38 35 32 28 28 24 21 17 16 15 13 12 13 13 14 14 16 13 12 12 11 8 3 10 7 8 16 14 9 14 12 13 17 11 10 7 7 6 9 3 10 13
61 56 54 51 49 42 38 36 32 28 24 21 16 15 14 11 11 12 13 13 13 9 9 6 6 5 5 4 11 7 12 15 17 15 17 13 10 16 7 1 6 4 12 14 23 7 12
64 61 60 58 54 49 43 40 34 28 24 19 15 14 12 11 10 11 10 10 4 2 0 1 0 3 2 5 9 11 16 16 10 2 6 8 6 1 2 3 13 10 8 11 12 10 11
68 64 58 57 57 51 45 41 37 27 24 20 16 13 12 8 7 8 6 1 1 3 5 5 3 4 7 6 12 17 20 13 3 0 2 3 1 4 13 9 12 13 15 19 18 18 21
71 69 62 62 60 54 45 38 32 30 26 20 17 16 11 7 6 2 6 6 5 4 6 2 4 10 8 8 12 25 13 7 2 5 1 1 7 15 8 12 12 16 15 18 20 23 14
72 71 66 64 60 55 47 39 32 28 24 20 19 15 10 8 8 2 6 9 3 5 1 5 4 6 4 15 14 18 15 8 7 4 6 6 11 8 13 13 12 15 17 20 18 22 14
74 70 65 68 61 51 42 39 37 25 24 22 17 15 11 9 7 6 4 4 2 2 4 1 1 1 3 21 5 18 3 9 1 3 4 8 6 5 8 12 12 18 12 15 16 15 13
77 75 65 68 60 50 44 41 40 38 25 21 17 14 11 15 9 8 2 4 3 1 1 5 1 0 19 4 16 3 13 4 5 7 3 9 7 8 14 17 10 16 11 11 20 15 9
78 80 74 67 59 50 46 42 38 34 27 21 18 13 12 12 10 5 5 4 6 4 2 4 4 7 10 6 5 8 6 7 9 5 7 22 24 10 20 18 12 11 3 7 13 6 5
77 71 67 62 54 51 46 42 40 32 26 22 16 13 13 10 11 6 6 7 4 3 4 4 4 7 7 8 6 6 7 7 1 7 4 8 7 8 17 13 12 5 3 3 3 1 5
72 76 66 56 54 47 48 43 37 29 27 20 15 13 12 11 7 7 9 3 3 3 2 2 4 6 4 8 4 8 5 5 6 4 4 3 7 3 3 8 7 7 7 4 3 3 4
64 56 58 54 46 42 45 42 34 30 23 19 16 13 11 9 7 7 6 3 4 3 1 3 3 4 4 3 2 6 4 4 2 1 4 3 5 3 3 1 6 4 6 10 4 6 2
43 42 39 38 40 44 42 36 30 26 22 20 18 12 10 7 8 6 4 3 4 2 3 4 2 0 2 6 6 6 6 3 6 6 8 4 6 2 5 5 7 7 1 1 1 3 5
22 29 35 34 33 38 34 31 27 24 23 20 18 6 9 5 7 3 3 4 3 3 5 4 3 1 4 4 3 5 4 9 6 9 11 7 4 7 8 4 5 2 2 5 3 1 2
31 32 31 32 32 27 28 28 25 25 22 21 13 2 10 7 4 3 2 4 2 3 4 3 3 4 5 2 3 3 4 5 12 16 9 3 3 4 4 11 7 3 5 4 3 3 2
29 25 25 25 25 25 24 25 25 24 23 18 9 6 6 8 3 0 3 0 3 2 2 3 2 5 2 3 2 4 5 10 22 10 4 3 2 6 3 2 3 3 3 4 6 2 4
24 24 21 21 22 23 21 24 23 23 24 14 7 3 3 3 2 4 3 1 2 0 2 3 3 2 2 1 3 4 4 8 24 8 15 1 2 6 4 4 7 5 5 9 6 4 3
21 21 20 19 19 22 21 22 23 23 21 11 3 2 5 2 2 3 2 2 2 1 1 1 2 2 2 2 3 4 4 8 10 4 8 3 5 11 20 16 20 16 4 10 14 9 5
21 19 20 17 18 22 21 21 22 22 20 6 5 5 4 5 10 5 1 4 3 2 3 3 1 5 3 4 7 7 4 2 7 7 6 3 1 3 6 11 25 23 23 18 21 15 11
23 20 18 17 18 22 22 21 22 21 20 6 9 9 5 1 3 4 3 4 3 2 2 4 1 2 2 8 15 27 22 17 11 6 4 3 3 2 4 5 7 14 16 16 16 16 5
23 24 20 18 19 21 22 21 21 21 13 14 14 9 5 1 3 4 4 3 1 0 2 3 5 1 7 27 23 7 7 12 11 7 14 6 5 2 1 2 6 2 11 10 20 15 12
22 21 18 21 19 19 20 20 20 19 16 15 15 7 4 2 1 5 5 3 1 3 3 1 5 10 16 11 4 5 5 4 1 5 8 6 1 2 2 5 5 4 8 6 7 9 12
24 22 22 21 19 17 19 20 21 20 17 14 13 9 5 9 1 2 3 2 1 2 5 2 7 9 13 3 3 3 3 4 4 8 5 6 11 3 2 3 2 4 12 11 6 5 11
25 23 22 21 18 16 16 21 20 21 17 14 11 9 6 6 3 4 2 2 1 1 0 4 8 8 11 3 3 3 2 4 3 5 5 5 4 6 4 3 3 11 14 4 1 1 7
25 24 21 21 18 14 17 21 20 20 18 15 11 8 7 4 7 5 3 2 2 2 2 4 3 4 4 4 2 2 2 2 1 2 4 4 4 4 3 4 3 20 3 3 7 8 9
26 24 24 21 18 14 19 21 20 20 18 15 11 8 8 4 4 4 1 4 5 1 1 3 3 1 2 3 1 1 2 2 2 3 5 4 3 2 5 3 5 10 14 13 11 11 9
Wind_Direction
260 257 256 258 255 250 248 246 248 249 248 251 256 261 266 275 283 292 298 304 311 316 319 317 318 321 328 326 310 298 280 281 298 292 286 300 276 249 229 249 288 258 280 277 288 285 288
259 255 251 249 252 249 245 242 241 242 245 246 249 258 267 275 282 291 298 306 309 309 312 314 319 319 322 320 336 310 298 282 288 296 298 278 252 280 279 241 250 299 304 294 291 284 287
258 254 254 247 246 247 241 238 239 240 239 238 247 254 265 271 279 289 296 301 303 301 301 295 296 304 313 312 348 34 35 11 21 6 327 286 279 270 258 327 284 293 306 304 283 289 266
253 260 252 248 243 242 236 237 234 236 232 236 240 251 259 269 283 289 291 292 298 297 293 280 280 299 281 79 23 341 333 322 316 326 330 316 293 264 249 260 289 302 289 299 336 334 308
249 254 253 244 244 238 230 231 228 231 232 234 237 251 258 261 273 280 288 302 307 299 288 280 277 308 285 19 8 22 342 327 299 289 298 309 306 257 243 235 301 187 268 276 295 285 274
242 248 249 246 238 231 225 225 222 218 230 228 235 242 250 262 267 276 302 321 319 298 298 70 37 303 302 330 346 330 348 326 322 358 295 281 261 161 64 147 250 259 250 266 268 289 310
244 234 244 239 229 222 217 215 213 211 220 224 227 237 244 244 253 289 330 58 99 244 263 257 240 255 292 322 307 319 321 322 293 305 168 230 252 270 234 229 256 268 264 266 266 264 273
236 233 235 232 216 214 213 210 199 205 212 219 224 226 226 224 220 284 7 75 52 347 316 251 213 247 290 305 294 329 342 336 292 247 240 316 221 240 244 263 264 265 264 267 275 266 274
229 228 224 215 213 209 209 201 198 204 209 216 218 217 212 205 190 196 60 56 33 353 356 283 249 271 338 326 299 294 325 288 219 205 204 210 253 282 251 246 253 262 254 261 266 289 278
222 223 216 208 203 205 198 193 190 202 207 213 209 206 202 195 184 173 98 21 74 65 69 300 259 328 316 331 286 305 350 335 338 290 269 251 270 231 241 242 232 259 262 275 281 292 276
216 212 205 196 197 197 192 190 193 187 207 208 201 201 188 180 163 152 101 120 89 55 26 341 218 209 339 301 286 317 321 306 231 261 249 248 272 271 273 256 230 257 254 244 265 266 268
209 201 191 191 191 185 186 188 184 191 199 196 192 190 185 169 166 154 150 112 114 52 246 340 332 335 340 297 298 297 318 323 296 273 233 264 270 258 254 271 253 249 247 259 243 244 246
191 174 170 178 181 181 182 182 181 187 186 187 182 184 185 165 162 157 136 131 70 131 6 324 320 340 332 314 313 357 328 328 25 348 341 310 278 262 243 254 272 205 101 303 335 43 247
172 174 176 177 175 177 177 180 183 188 190 176 178 175 169 161 161 156 135 76 121 110 235 250 339 325 329 344 330 335 309 345 26 222 295 310 323 221 191 199 202 202 174 195 258 221 258
152 154 159 169 165 163 168 176 184 183 173 166 166 171 165 153 161 146 136 77 153 193 234 8 358 14 315 301 334 337 299 296 281 66 232 296 268 292 155 256 171 265 197 218 279 289 329
129 136 140 151 155 166 170 178 176 169 165 160 156 162 146 125 136 131 86 143 151 145 117 71 99 267 289 314 357 355 320 342 299 308 338 260 290 266 278 264 221 203 286 88 295 240 232
153 148 146 148 154 166 169 165 164 162 159 154 154 161 151 130 134 115 136 208 129 113 130 114 165 211 241 274 282 327 301 297 242 305 315 265 228 276 294 238 241 138 294 211 185 128 324
134 140 141 149 164 154 155 159 161 159 153 156 155 112 151 160 97 62 152 197 170 133 88 109 139 183 205 244 290 315 250 276 298 312 300 251 270 282 288 279 287 207 225 170 132 256 70
135 136 146 151 154 153 153 158 158 158 157 156 115 108 145 161 124 311 274 207 132 145 146 149 207 192 205 183 25 203 263 272 294 317 307 320 320 302 282 350 92 288 314 91 112 121 52
143 145 146 155 159 149 154 158 162 160 158 150 128 96 124 173 119 135 152 89 105 232 193 187 197 100 58 321 233 274 277 295 315 283 323 8 304 276 264 330 256 240 196 59 98 65 55
154 148 156 158 163 156 158 162 163 164 162 147 122 150 149 197 261 155 134 122 135 48 274 80 8 182 165 334 306 224 265 299 300 305 348 96 359 46 45 18 52 48 132 115 96 76 47
157 157 165 168 170 160 162 167 168 165 163 148 125 127 128 128 149 132 76 191 170 302 186 310 122 293 202 228 203 279 227 235 260 327 334 330 326 324 45 37 46 47 43 63 80 91 93
170 165 165 167 169 169 171 172 168 167 170 122 115 117 129 60 110 102 208 173 204 229 76 73 305 286 235 241 276 273 265 250 256 299 289 301 316 353 45 6 311 48 29 48 55 39 48
170 170 166 166 165 171 172 170 166 167 168 152 137 130 118 152 143 185 171 171 136 175 209 30 11 12 296 315 312 288 256 234 232 285 222 302 345 63 92 265 44 64 19 48 63 46 61
172 169 168 169 169 169 172 167 166 161 157 155 143 133 106 94 87 57 83 86 4 17 20 284 340 328 327 322 3 6 350 15 106 65 23 1 301 88 70 60 123 58 13 341 20 48 37
169 170 167 167 172 168 171 170 168 164 161 155 145 139 113 120 332 131 94 66 150 326 345 302 321 348 356 49 44 51 23 332 325 337 356 4 16 84 83 75 90 46 333 323 296 57 34
171 165 167 170 170 169 170 171 168 167 162 161 146 144 118 108 103 120 134 165 108 74 246 313 335 344 7 24 60 41 349 321 6 8 336 345 12 33 17 98 95 355 323 349 327 56 76
171 164 169 169 172 172 171 168 167 168 170 170 157 158 165 113 141 146 149 165 158 81 126 315 24 350 14 56 61 331 11 3 351 50 344 23 350 20 342 67 49 354 38 79 108 89 90
170 165 167 167 168 163 167 165 164 168 172 167 160 167 173 142 153 166 256 262 236 228 126 46 102 104 67 69 306 77 1 355 352 9 9 43 42 58 19 84 81 38 60 88 109 101 100